Weather History for Vero Beach, FL

Change the Weather History Date:

Saturday, May 19, 2012

  Actual Average Record
Temperature  
Mean Temperature 76 °F 77 °F  
Max Temperature 84 °F 85 °F 95 °F (1995)
Min Temperature 67 °F 68 °F 58 °F (1984)
Degree Days  
Heating Degree Days 0 0  
Month to date heating degree days 0 0  
Since 1 July heating degree days 230 455  
Cooling Degree Days 11 12  
Month to date cooling degree days 243 192  
Year to date cooling degree days 872 650  
Growing Degree Days 24 (Base 50)    
Moisture  
Dew Point 68 °F    
Average Humidity 78    
Maximum Humidity 93    
Minimum Humidity 62    
Precipitation  
Precipitation T in 0.10 in 2.82 in (2009)
Month to date precipitation 2.26 1.68  
Year to date precipitation 11.21 13.69  
Sea Level Pressure  
Sea Level Pressure 29.95 in    
Wind  
Wind Speed 5 mph (NE)    
Max Wind Speed 15 mph    
Max Gust Speed 26 mph    
Visibility 10 miles    
Events      
T = Trace of Precipitation, MM = Missing Value Source: NWS Daily Summary

Daily Weather History Graph

Daily Weather History Graph

Search for Another Location

Airport:

Trip Planner

Search our weather history database for the weather conditions in past years. The results will help you decide how hot, cold, wet, or windy it might be!

Date:

Astronomy

May. 19, 2012 Rise Set
Actual Time 6:30 AM EDT 8:06 PM EDT
Civil Twilight 6:04 AM EDT 8:32 PM EDT
Nautical Twilight 5:33 AM EDT 9:02 PM EDT
Astronomical Twilight 5:01 AM EDT 9:35 PM EDT
Moon 5:27 AM EDT (5/19) 7:11 PM EDT (5/19)
Length of Visible Light 14h 27m
Length of Day
13h 35m
Waning Crescent, 2% of the Moon is Illuminated
May 19
Waning Crescent
May 20
New
May 28
First Quarter
Jun 4
Full
Jun 11
Last Quarter

Hourly Weather History & Observations

Time (EDT) Temp. Heat Index Dew Point Humidity Pressure Visibility Wind Dir Wind Speed Gust Speed Precip Events Conditions
12:53 AM 72.0 °F - 66.9 °F 84% 29.95 in 10.0 mi Calm Calm - N/A   Partly Cloudy
1:53 AM 71.1 °F - 66.9 °F 87% 29.93 in 10.0 mi Calm Calm - N/A   Clear
2:53 AM 70.0 °F - 66.9 °F 90% 29.91 in 10.0 mi Calm Calm - N/A   Clear
3:53 AM 69.1 °F - 66.0 °F 90% 29.91 in 10.0 mi Calm Calm - N/A   Scattered Clouds
4:53 AM 68.0 °F - 64.9 °F 90% 29.91 in 10.0 mi Calm Calm - N/A   Clear
5:53 AM 68.0 °F - 66.0 °F 93% 29.92 in 10.0 mi Calm Calm - N/A   Clear
6:53 AM 66.9 °F - 64.0 °F 90% 29.94 in 10.0 mi Calm Calm - N/A   Clear
7:53 AM 73.0 °F - 69.1 °F 87% 29.94 in 10.0 mi Calm Calm - N/A   Clear
8:53 AM 78.1 °F - 70.0 °F 76% 29.96 in 10.0 mi North 5.8 mph - N/A   Clear
9:34 AM 80.6 °F 83.9 °F 69.8 °F 70% 29.97 in 10.0 mi North 8.1 mph - N/A   Mostly Cloudy
9:53 AM 82.0 °F 85.9 °F 70.0 °F 67% 29.96 in 10.0 mi NNE 5.8 mph - N/A   Mostly Cloudy
10:35 AM 80.6 °F 83.9 °F 69.8 °F 70% 29.96 in 10.0 mi NNE 9.2 mph - N/A   Scattered Clouds
10:44 AM 80.6 °F 83.9 °F 69.8 °F 70% 29.96 in 10.0 mi NNE 9.2 mph 16.1 mph N/A   Mostly Cloudy
10:53 AM 80.1 °F 83.2 °F 70.0 °F 71% 29.96 in 10.0 mi NE 9.2 mph - N/A   Mostly Cloudy
11:53 AM 82.9 °F 87.0 °F 70.0 °F 65% 29.97 in 10.0 mi NE 13.8 mph - N/A   Scattered Clouds
12:53 PM 82.9 °F 86.5 °F 69.1 °F 63% 29.97 in 10.0 mi NE 12.7 mph 17.3 mph N/A   Scattered Clouds
1:53 PM 82.0 °F 85.5 °F 69.1 °F 65% 29.95 in 10.0 mi NNE 10.4 mph - N/A   Partly Cloudy
2:53 PM 78.1 °F - 66.9 °F 68% 29.94 in 10.0 mi NNE 12.7 mph 16.1 mph N/A   Clear
3:53 PM 80.1 °F 82.3 °F 66.9 °F 64% 29.93 in 10.0 mi NNE 10.4 mph 18.4 mph N/A   Scattered Clouds
4:53 PM 80.1 °F 82.3 °F 66.9 °F 64% 29.94 in 10.0 mi NNE 8.1 mph - N/A   Mostly Cloudy
5:53 PM 80.1 °F 82.9 °F 69.1 °F 69% 29.94 in 10.0 mi NNE 12.7 mph 18.4 mph N/A   Scattered Clouds
6:30 PM 80.6 °F 83.9 °F 69.8 °F 70% 29.94 in 10.0 mi NE 10.4 mph 17.3 mph N/A   Mostly Cloudy
6:53 PM 75.9 °F - 68.0 °F 76% 29.94 in 10.0 mi ESE 8.1 mph - N/A   Overcast
7:31 PM 75.2 °F - 69.8 °F 83% 29.95 in 10.0 mi East 6.9 mph - 0.00 in   Mostly Cloudy
7:53 PM 73.9 °F - 66.9 °F 79% 29.96 in 10.0 mi ESE 4.6 mph - 0.00 in   Partly Cloudy
8:53 PM 72.0 °F - 66.9 °F 84% 29.96 in 10.0 mi Calm Calm - N/A   Clear
9:53 PM 71.1 °F - 66.9 °F 87% 29.99 in 10.0 mi Calm Calm - N/A   Clear
10:53 PM 70.0 °F - 66.9 °F 90% 30.01 in 10.0 mi SSW 3.5 mph - N/A   Clear
11:53 PM 70.0 °F - 66.9 °F 90% 30.00 in 10.0 mi Calm Calm - N/A   Partly Cloudy